Details From TFFR - Pointe a Pitre Le Raizet
To TNCM - St Maarten - Princess Juliana Intl
Flight Number -
Tags decoded
Created
Modified
Stats Distance 140 nm / 259 km
Max Altitude 0 ft / 0 m
Waypoints 2
Social Downloads 0
Likes 0
Share VATSIM

Download

Looking for another format? Having issues loading an existing format? Contact us
Advertisement - Login to hide

Notes

Requested: TFFR 16 16 16 16 16 16 16 16 16 16 16 17 17 17 18 18 18 18 18 18 18 18 18 18 18 TNCM Unmatched points: 16 16 16 16 16 16 16 16 16 16 16 17 17 17 18 18 18 18 18 18 18 18 18 18 18

Route

TFFR TNCM

ID Type Via Altitude (ft/m) Position (lat/lon) Dist (leg/tot) Name
O TFFR APT - 0 / 0 16.26531 / -61.53181 - / 0 nm Pointe a Pitre Le Raizet
O TNCM APT - 0 / 0 18.04089 / -63.10897 139 / 139 nm St Maarten - Princess Juliana Intl

Altitude Profile

Advertisement - Login to hide

TFFR

Details ICAO TFFR (PTP)
Name Point a Pitre - Le Raizet
Region France (Guadeloupe, Martinique, Saint Barthélemy, Saint Martin)
Timezone America/Guadeloupe (UTC-4.0)
Stats Elevation 35 ft / 11 m (AMSL)
Location 16.265500° -61.533000°
Runways 1
Magnetic Variation 14.882° W

METAR

TFFR 111030Z AUTO 09001KT CAVOK 21/19 Q1019

Decode

TAF

Not found

Departure Runways

ID Width Length Bearing (true/mag) Surface Threshold Overrun Markings Lighting
12 148 ft / 45 m 10,673 ft / 3,253 m 100.95° / 115.83° ASPHALT 1,302 ft / 397 m 0 ft / 0 m PREC-APP EDGE THRESHOLD ALSF-I TDZ
30 148 ft / 45 m 10,673 ft / 3,253 m 280.96° / 295.84° ASPHALT 978 ft / 298 m 820 ft / 250 m PREC-APP EDGE THRESHOLD ALSF-I TDZ

TNCM

Details ICAO TNCM (SXM)
Name Princess Juliana Int'l
Region Caribbean Netherlands, Aruba, Curaçao, Sint Maarten
Timezone Unknown
Stats Elevation 12 ft / 4 m (AMSL)
Location 18.040900° -63.108900°
Runways 1
Magnetic Variation 14.352° W

METAR

TNCM 111000Z 09009KT 060V130 9999 FEW020 26/22 Q1019 A3009 NOSIG

Decode

TAF

TAF TAF TNCM 110536Z 1106/1206 10010KT P6SM VCSH FEW020 SCT045 FM111400 13010KT P6SM SCT022 FM112300 11008KT P6SM FEW022

Decode

Destination Runways

ID Width Length Bearing (true/mag) Surface Threshold Overrun Markings Lighting
10 148 ft / 45 m 7,553 ft / 2,302 m 81.44° / 95.79° ASPHALT 331 ft / 101 m 164 ft / 50 m PREC-APP EDGE THRESHOLD REIL-OMNI
28 148 ft / 45 m 7,553 ft / 2,302 m 261.45° / 275.80° ASPHALT 0 ft / 0 m 200 ft / 61 m APP EDGE THRESHOLD

Popular Alternatives